Regional Weather Roundup
Issued by NWS Goodland, KS

Home | Current Version | Previous Version | Graphics & Text | Print | Product List | Glossary On
Versions: 1 2 3 4 5 6 7 8 9 10 11 12 13 14 15 16 17 18 19 20 21 22 23 24 25 26 27 28 29 30 31 32 33 34 35 36 37 38 39 40 41 42 43 44 45 46 47 48 49 50
000
ASUS43 KGLD 172259
RWRGLD

GOODLAND FORECAST AREA HOURLY WEATHER ROUNDUP
NATIONAL WEATHER SERVICE GOODLAND KS
400 PM MST SUN DEC 17 2017

...OFFICIAL OBSERVATIONS...

CITY           SKY/WX    TMP DP  RH WIND       PRES   REMARKS
GOODLAND KS    CLOUDY    39  26  59 W5        29.94S
HILL CITY KS   PTCLDY    40  30  67 N7        29.98S
IMPERIAL NEB   CLEAR     38  29  70 S7        29.93S
MCCOOK NEB     PTCLDY    38  30  73 W6        29.96S
AKRON CO       CLEAR     35  24  64 SW7       29.90S
BURLINGTON CO  CLOUDY    37  27  67 W7        29.95R
LIMON CO       CLOUDY    36  23  59 S10       29.91R
$$

...UNOFFICIAL OBSERVATIONS...

CITY           SKY/WX    TMP DP  RH WIND       PRES   REMARKS
LENORA KS        N/A     38  32  79 CALM        N/A
NORTON KS      CLEAR     37  25  60 CALM      29.96
SHARON SPRINGS   N/A     39  28  66 CALM        N/A
TRENTON NEB      N/A     38  32  79 CALM        N/A
KIT CARSON CO    N/A     39  26  60 CALM        N/A
YUMA CO        FAIR      34  27  75 SW7       29.92R
$$




USA.gov is the U.S. government's official web portal to all federal, state and local government web resources and services.